Weather History for New Castle, PA

Change the Weather History Date:

Saturday, November 24, 2012

  Actual Average Record
Temperature  
Mean Temperature 30 °F -  
Max Temperature 31 °F 48 °F 74 °F (1934)
Min Temperature 28 °F 30 °F 13 °F (1950)
Degree Days  
Heating Degree Days 36    
Moisture  
Dew Point 24 °F    
Average Humidity 81    
Maximum Humidity 93    
Minimum Humidity 66    
Precipitation  
Precipitation 0.00 in - - ()
Sea Level Pressure  
Sea Level Pressure 30.06 in    
Wind  
Wind Speed 11 mph (WSW)    
Max Wind Speed 17 mph    
Max Gust Speed -    
Visibility 6 miles    
Events Snow    
Averages and records for this station are not official NWS values.
T = Trace of Precipitation, MM = Missing Value Source: NWS Daily Summary

Daily Weather History Graph

Daily Weather History Graph

Search for Another Location

Airport:

Trip Planner

Search our weather history database for the weather conditions in past years. The results will help you decide how hot, cold, wet, or windy it might be!

Date:

Astronomy

Nov. 24, 2012 Rise Set
Actual Time 7:20 AM EST 4:56 PM EST
Civil Twilight 6:50 AM EST 5:26 PM EST
Nautical Twilight 6:16 AM EST 6:00 PM EST
Astronomical Twilight 5:43 AM EST 6:33 PM EST
Moon 2:41 PM EST (11/24) 3:34 AM EST (11/24)
Length of Visible Light 10h 36m
Length of Day
9h 36m
Waxing Gibbous, 87% of the Moon is Illuminated
Nov 24
Waxing Gibbous
Nov 28
Full
Dec 6
Last Quarter
Dec 13
New
Dec 20
First Quarter

Hourly Weather History & Observations

Time (EST) Temp. Windchill Dew Point Humidity Pressure Visibility Wind Dir Wind Speed Gust Speed Precip Events Conditions
12:56 AM 30.0 °F 20.5 °F 22.1 °F 72% 30.03 in 10.0 mi WSW 11.5 mph - 0.00 in   Overcast
1:56 AM 30.0 °F 20.0 °F 22.1 °F 72% 30.02 in 10.0 mi WSW 12.7 mph - 0.00 in   Overcast
2:56 AM 30.0 °F 21.1 °F 22.1 °F 72% 30.04 in 10.0 mi WSW 10.4 mph - 0.00 in   Overcast
3:56 AM 30.0 °F 20.0 °F 23.0 °F 75% 30.04 in 10.0 mi WSW 12.7 mph - 0.00 in   Overcast
5:56 AM 30.0 °F 21.1 °F 23.0 °F 75% 30.06 in 10.0 mi WSW 10.4 mph - 0.00 in Snow Light Snow
6:30 AM 28.4 °F 18.0 °F 23.0 °F 80% 29.99 in 9.0 mi WSW 12.7 mph - 0.00 in Snow Light Snow
6:44 AM 28.4 °F 19.1 °F 24.8 °F 86% 29.99 in 10.0 mi WSW 10.4 mph - 0.00 in Snow Light Snow
6:56 AM 29.1 °F 20.6 °F 24.1 °F 81% 30.08 in 10.0 mi WSW 9.2 mph - 0.00 in Snow Light Snow
7:31 AM 28.4 °F 19.7 °F 24.8 °F 86% 30.01 in 5.0 mi West 9.2 mph - 0.00 in Snow Light Snow
7:48 AM 28.4 °F 18.0 °F 24.8 °F 86% 30.01 in 2.5 mi West 12.7 mph - 0.00 in Snow Light Snow
7:56 AM 29.1 °F 19.4 °F 24.1 °F 81% 30.09 in 2.0 mi WSW 11.5 mph - 0.00 in Snow Light Snow
8:03 AM 28.4 °F 18.5 °F 24.8 °F 86% 30.01 in 3.0 mi West 11.5 mph - 0.00 in Snow Light Snow
8:13 AM 28.4 °F 18.5 °F 24.8 °F 86% 30.01 in 3.0 mi WSW 11.5 mph - 0.00 in Snow Light Snow
8:16 AM 28.4 °F 19.1 °F 24.8 °F 86% 30.01 in 2.5 mi WSW 10.4 mph - 0.00 in Snow Light Snow
8:43 AM 28.4 °F 19.1 °F 24.8 °F 86% 30.02 in 1.8 mi West 10.4 mph - 0.00 in Snow Light Snow
8:56 AM 29.1 °F 19.4 °F 25.2 °F 85% 30.10 in 1.5 mi West 11.5 mph - 0.00 in Snow Light Snow
9:00 AM 28.4 °F 18.5 °F 24.8 °F 86% 30.02 in 1.2 mi West 11.5 mph - 0.00 in Snow Light Snow
9:10 AM 28.4 °F 18.0 °F 24.8 °F 86% 30.02 in 1.2 mi West 12.7 mph - 0.00 in Snow Light Snow
9:17 AM 28.4 °F 19.1 °F 24.8 °F 86% 30.02 in 1.5 mi West 10.4 mph - 0.00 in Snow Light Snow
9:45 AM 28.4 °F 19.1 °F 24.8 °F 86% 30.02 in 2.0 mi WSW 10.4 mph - 0.00 in Snow Light Snow
9:56 AM 29.1 °F 19.4 °F 25.2 °F 85% 30.11 in 2.5 mi West 11.5 mph - 0.00 in Snow Light Snow
10:39 AM 28.4 °F 18.5 °F 26.6 °F 93% 30.04 in 1.8 mi West 11.5 mph - 0.00 in Snow Light Snow
10:47 AM 28.4 °F 19.7 °F 24.8 °F 86% 30.04 in 2.0 mi West 9.2 mph - 0.00 in Snow Light Snow
10:56 AM 29.1 °F 20.0 °F 25.2 °F 85% 30.11 in 4.0 mi WSW 10.4 mph - 0.00 in Snow Light Snow
11:10 AM 30.2 °F 19.8 °F 24.8 °F 80% 30.03 in 6.0 mi WSW 13.8 mph - 0.00 in Snow Light Snow
11:18 AM 30.2 °F 20.8 °F 24.8 °F 80% 30.03 in 6.0 mi West 11.5 mph - 0.00 in Snow Light Snow
11:31 AM 30.2 °F 20.2 °F 24.8 °F 80% 30.03 in 4.0 mi West 12.7 mph - 0.00 in Snow Light Snow
11:56 AM 30.0 °F 21.7 °F 26.1 °F 85% 30.11 in 3.0 mi West 9.2 mph - 0.00 in Snow Light Snow
12:14 PM 30.2 °F 19.3 °F 26.6 °F 86% 30.02 in 2.5 mi WSW 15.0 mph - 0.00 in Snow Light Snow
12:27 PM 30.2 °F 20.8 °F 26.6 °F 86% 30.01 in 6.0 mi West 11.5 mph - 0.00 in Snow Light Snow
12:34 PM 30.2 °F 18.5 °F 24.8 °F 80% 30.01 in 7.0 mi West 17.3 mph - 0.00 in Snow Light Snow
12:56 PM 30.0 °F 21.1 °F 25.2 °F 82% 30.09 in 7.0 mi West 10.4 mph - 0.00 in Snow Light Snow
1:56 PM 31.1 °F 20.1 °F 25.2 °F 79% 30.09 in 6.0 mi West 16.1 mph - 0.00 in Snow Light Snow
2:13 PM 30.2 °F 20.2 °F 24.8 °F 80% 30.02 in 2.5 mi WNW 12.7 mph - 0.00 in Snow Light Snow
2:33 PM 28.4 °F 19.7 °F 24.8 °F 86% 30.02 in 1.8 mi West 9.2 mph - 0.00 in Snow Light Snow
2:56 PM 29.1 °F 20.6 °F 26.1 °F 88% 30.11 in 1.0 mi West 9.2 mph - 0.00 in Snow Light Snow
3:13 PM 28.4 °F 19.7 °F 26.6 °F 93% 30.03 in 1.5 mi West 9.2 mph - 0.00 in Snow Light Snow
3:18 PM 28.4 °F 20.4 °F 26.6 °F 93% 30.03 in 2.5 mi West 8.1 mph - 0.00 in Snow Light Snow
3:25 PM 28.4 °F 20.4 °F 26.6 °F 93% 30.03 in 5.0 mi West 8.1 mph - 0.00 in Snow Light Snow
3:56 PM 29.1 °F 18.4 °F 24.1 °F 81% 30.12 in 10.0 mi West 13.8 mph - 0.00 in Snow Light Snow
4:56 PM 29.1 °F 20.6 °F 23.0 °F 78% 30.13 in 10.0 mi West 9.2 mph - 0.00 in Snow Light Snow
5:56 PM 28.0 °F 18.1 °F 22.1 °F 78% 30.14 in 10.0 mi West 11.5 mph - 0.00 in Snow Light Snow
6:56 PM 28.0 °F 20.0 °F 21.0 °F 75% 30.15 in 10.0 mi WSW 8.1 mph - 0.00 in   Overcast
7:56 PM 29.1 °F 21.3 °F 21.0 °F 72% 30.15 in 10.0 mi West 8.1 mph - 0.00 in   Mostly Cloudy
8:56 PM 29.1 °F 20.6 °F 19.0 °F 66% 30.14 in 10.0 mi West 9.2 mph - N/A   Overcast
9:56 PM 29.1 °F 20.0 °F 19.0 °F 66% 30.14 in 10.0 mi WSW 10.4 mph - N/A   Mostly Cloudy
10:56 PM 29.1 °F 19.4 °F 19.0 °F 66% 30.13 in 10.0 mi WSW 11.5 mph - N/A   Overcast
11:56 PM 29.1 °F 19.4 °F 19.0 °F 66% 30.12 in 10.0 mi WSW 11.5 mph - N/A   Mostly Cloudy